This demonstration page uses our WeatherBlox Daily Observations layout. Learn more.

Left ArrowRight Arrow

41.55636, -103.73856

Hourly Observations for December 31, 2020

Temp ( °F °C ) Dew Point ( °F °C ) Humidity (%) Winds ( mph kmh ) Pressure ( in mb ) Visibility ( mi km ) Precip ( " mm )
12:58 am 00:58 Mostly Cloudy 24 -4.6 13 -10.8 62 62 SW 5 7 30.04 1017 10 16 0.00 0.00
1:58 am 01:58 Mostly Cloudy 25 -3.8 13 -10.3 61 61 SW 8 13 30.02 1017 10 16 0.00 0.00
2:58 am 02:58 Mostly Cloudy 24 -4.4 14 -10.1 65 65 W 7 11 30.00 1016 10 16 0.00 0.00
3:58 am 03:58 Mostly Cloudy 26 -3.2 15 -9.5 62 62 SW 6 9 30.01 1016 10 16 0.00 0.00
4:58 am 04:58 Mostly Cloudy 27 -2.9 14 -10.2 58 58 SW 7 11 30.01 1016 10 16 0.00 0.00
5:58 am 05:58 Clear 26 -3.4 13 -10.6 58 58 SW 7 11 30.04 1017 10 16 0.00 0.00
6:58 am 06:58 Clear 25 -3.7 12 -11 57 57 SW 8 13 30.06 1018 10 16 0.00 0.00
7:58 am 07:58 Sunny 24 -4.6 10 -12.1 56 56 S 7 11 30.06 1018 10 16 0.00 0.00
8:58 am 08:58 Sunny 28 -2.3 13 -10.7 53 53 SW 6 9 30.06 1018 10 16 0.00 0.00
9:58 am 09:58 Sunny 34 1.1 17 -8.3 50 50 Calm 30.07 1018 10 16 0.00 0.00
10:58 am 10:58 Sunny 38 3.4 19 -7.3 46 46 W 5 7 30.03 1017 10 16 0.00 0.00
11:58 am 11:58 Sunny 42 5.6 23 -5.2 46 46 W 12 19 30.01 1016 10 16 0.00 0.00
12:58 pm 12:58 Sunny 43 6.2 19 -7.5 37 37 W 12 19 29.99 1016 10 16 0.00 0.00
1:58 pm 13:58 Sunny 43 6.2 22 -5.4 44 44 NW 10 17 30.00 1016 10 16 0.00 0.00
2:58 pm 14:58 Sunny 43 6 22 -5.6 44 44 NNW 13 20 30.01 1016 10 16 0.00 0.00
3:58 pm 15:58 Sunny 40 4.5 24 -4.5 52 52 NE 5 7 30.02 1017 10 16 0.00 0.00
4:58 pm 16:58 Clear 38 3.2 23 -5 55 55 NW 3 6 30.05 1018 10 16 0.00 0.00
5:58 pm 17:58 Clear 34 1.2 21 -6.1 59 59 Calm 30.09 1019 10 16 0.00 0.00
6:58 pm 18:58 Clear 25 -3.7 19 -7.2 77 77 SSW 6 9 30.16 1021 10 16 0.00 0.00
7:58 pm 19:58 Clear 28 -2.1 20 -6.5 72 72 W 6 9 30.17 1022 10 16 0.00 0.00
8:58 pm 20:58 Clear 26 -3.5 20 -6.9 78 78 WNW 9 15 30.18 1022 10 16 0.00 0.00
9:58 pm 21:58 Mostly Clear 25 -3.7 19 -7 78 78 WNW 7 11 30.16 1021 10 16 0.00 0.00
10:58 pm 22:58 Cloudy 27 -2.6 22 -5.6 80 80 WNW 9 15 30.15 1021 10 16 0.00 0.00
11:58 pm 23:58 Cloudy 28 -2.4 22 -5.5 80 80 NW 9 15 30.13 1020 10 16 0.00 0.00

Powered by AerisWeather